Fort Polk, LA

4:27 PM CST on February 20, 2018 (GMT -0600)
Fort Polk

Weather History for KAQV - June, 2013

Change the Weather History Date:

Thursday, June 6, 2013

  Actual Average (KPOE) Record (KPOE)
Temperature  
Mean Temperature 72 °F -  
Max Temperature 77 °F 85 °F 100 °F (2011)
Min Temperature 66 °F 67 °F 64 °F (1998)
Cooling Degree Days 6    
Growing Degree Days 22 (Base 50)    
Moisture  
Dew Point 70 °F    
Average Humidity 92    
Maximum Humidity 100    
Minimum Humidity 74    
Precipitation  
Precipitation 1.23 in - - ()
Sea Level Pressure  
Sea Level Pressure 29.84 in    
Wind  
Wind Speed 3 mph (NNE)    
Max Wind Speed 15 mph    
Max Gust Speed 30 mph    
Visibility 8 miles    
Events Rain , Thunderstorm    
Averages and records for this station are not official NWS values.
T = Trace of Precipitation, MM = Missing Value Source: NWS Daily Summary

Daily Weather History Graph

Daily Weather History Graph

Search for Another Location

Airport or City:

Trip Planner

Search our weather history database for the weather conditions in past years. The results will help you decide how hot, cold, wet, or windy it might be!

Date:

Astronomy

Jun. 06, 2013 Rise Set
Actual Time 6:08 AM CDT 8:15 PM CDT
Civil Twilight 5:40 AM CDT 8:43 PM CDT
Nautical Twilight 5:06 AM CDT 9:17 PM CDT
Astronomical Twilight 4:30 AM CDT 9:53 PM CDT
Moon 4:44 AM CDT (6/6) 6:42 PM CDT (6/6)
Length of Visible Light 15h 02m
Length of Day
14h 07m
Waning Crescent, 3% of the Moon is Illuminated
Jun 6
Waning Crescent
Jun 8
New
Jun 16
First Quarter
Jun 23
Full
Jun 29
Last Quarter

Hourly Weather History & Observations

Time (CDT) Temp. Dew Point Humidity Pressure Visibility Wind Dir Wind Speed Gust Speed Precip Events Conditions
12:56 AM 77.0 °F 73.9 °F 90% 29.83 in 10.0 mi Calm Calm - N/A   Clear
1:56 AM 77.0 °F 75.0 °F 94% 29.81 in 10.0 mi Variable 4.6 mph - N/A   Clear
2:56 AM 77.0 °F 75.0 °F 94% 29.80 in 10.0 mi South 3.5 mph - N/A   Mostly Cloudy
3:49 AM 77.0 °F 75.2 °F 94% 29.81 in 10.0 mi Calm Calm - N/A   Overcast
3:56 AM 77.0 °F 75.0 °F 94% 29.80 in 10.0 mi Calm Calm - N/A   Overcast
4:56 AM 75.9 °F 75.0 °F 97% 29.78 in 10.0 mi Calm Calm - N/A   Clear
5:46 AM 75.2 °F 73.4 °F 94% 29.80 in 10.0 mi Calm Calm - N/A Thunderstorm Thunderstorm
5:56 AM 75.9 °F 73.9 °F 94% 29.78 in 10.0 mi Calm Calm - N/A Thunderstorm Thunderstorm
6:33 AM 75.2 °F 75.2 °F 100% 29.83 in 10.0 mi Calm Calm - N/A Thunderstorm Thunderstorm
6:45 AM 75.2 °F 75.2 °F 100% 29.83 in 6.0 mi Calm Calm - N/A   Mostly Cloudy
6:56 AM 75.9 °F 75.0 °F 97% 29.82 in 7.0 mi Calm Calm - N/A Thunderstorm Thunderstorm
7:10 AM 75.2 °F 75.2 °F 100% 29.83 in 9.0 mi Calm Calm - N/A Thunderstorm Thunderstorm
7:18 AM 75.2 °F 73.4 °F 94% 29.85 in 10.0 mi NNW 11.5 mph 19.6 mph N/A Thunderstorm Thunderstorm
7:36 AM 69.8 °F 66.2 °F 88% 29.85 in 10.0 mi NE 12.7 mph 21.9 mph 0.01 in Rain , Thunderstorm Light Thunderstorms and Rain
7:56 AM 68.0 °F 64.9 °F 90% 29.86 in 8.0 mi NE 15.0 mph 29.9 mph 0.05 in Rain , Thunderstorm Thunderstorms and Rain
8:20 AM 68.0 °F 64.4 °F 88% 29.88 in 2.5 mi NE 12.7 mph 28.8 mph 0.13 in Rain , Thunderstorm Heavy Thunderstorms and Rain
8:35 AM 68.0 °F 64.4 °F 88% 29.90 in 4.0 mi Variable 4.6 mph 17.3 mph 0.21 in Rain , Thunderstorm Heavy Thunderstorms and Rain
8:49 AM 66.2 °F 64.4 °F 94% 29.87 in 1.8 mi SE 4.6 mph - 0.32 in Rain , Thunderstorm Heavy Thunderstorms and Rain
8:56 AM 66.9 °F 64.9 °F 93% 29.88 in 1.5 mi SSW 4.6 mph - 0.36 in Rain , Thunderstorm Heavy Thunderstorms and Rain
9:02 AM 66.2 °F 64.4 °F 94% 29.89 in 3.0 mi South 3.5 mph - 0.02 in Rain , Thunderstorm Thunderstorms and Rain
9:07 AM 66.2 °F 64.4 °F 94% 29.88 in 1.8 mi South 3.5 mph - 0.07 in Rain , Thunderstorm Heavy Thunderstorms and Rain
9:27 AM 66.2 °F 66.2 °F 100% 29.86 in 3.0 mi South 6.9 mph - 0.17 in Rain , Thunderstorm Thunderstorms and Rain
9:56 AM 68.0 °F 66.0 °F 93% 29.86 in 9.0 mi Calm Calm - 0.21 in Rain , Thunderstorm Light Thunderstorms and Rain
10:56 AM 66.9 °F 66.0 °F 97% 29.95 in 1.8 mi West 8.1 mph 19.6 mph 0.16 in Rain , Thunderstorm Heavy Thunderstorms and Rain
11:06 AM 68.0 °F 66.2 °F 94% 29.93 in 3.0 mi Variable 3.5 mph - 0.03 in Rain , Thunderstorm Thunderstorms and Rain
11:56 AM 69.1 °F 68.0 °F 96% 29.88 in 10.0 mi NNW 3.5 mph - 0.07 in Rain , Thunderstorm Light Thunderstorms and Rain
12:08 PM 69.8 °F 68.0 °F 94% 29.87 in 10.0 mi Variable 4.6 mph - 0.00 in Rain Light Rain
12:56 PM 73.0 °F 69.1 °F 87% 29.82 in 10.0 mi North 3.5 mph - 0.00 in   Clear
1:56 PM 73.9 °F 69.1 °F 85% 29.79 in 10.0 mi SW 3.5 mph - 0.00 in   Clear
2:56 PM 77.0 °F 68.0 °F 74% 29.81 in 10.0 mi NNE 5.8 mph - N/A   Clear
3:56 PM 75.9 °F 69.1 °F 79% 29.78 in 10.0 mi ENE 5.8 mph - N/A   Partly Cloudy
4:33 PM 75.2 °F 69.8 °F 83% 29.78 in 10.0 mi Variable 5.8 mph - N/A   Mostly Cloudy
4:41 PM 75.2 °F 69.8 °F 83% 29.79 in 10.0 mi Variable 3.5 mph - N/A   Scattered Clouds
4:53 PM 75.2 °F 69.8 °F 83% 29.80 in 10.0 mi Variable 3.5 mph - N/A   Mostly Cloudy
4:56 PM 75.0 °F 69.1 °F 82% 29.80 in 10.0 mi Variable 3.5 mph - N/A   Scattered Clouds
5:56 PM 75.0 °F 69.1 °F 82% 29.78 in 10.0 mi NE 3.5 mph - N/A   Partly Cloudy
6:56 PM 73.9 °F 70.0 °F 87% 29.81 in 10.0 mi NNW 3.5 mph - N/A   Overcast
7:07 PM 73.4 °F 69.8 °F 88% 29.82 in 10.0 mi Calm Calm - N/A   Mostly Cloudy
7:10 PM 73.4 °F 69.8 °F 88% 29.82 in 10.0 mi Calm Calm - N/A Thunderstorm Thunderstorm
7:43 PM 71.6 °F 71.6 °F 100% 29.84 in 4.0 mi Variable 4.6 mph - 0.05 in Rain Rain
7:52 PM 71.6 °F 71.6 °F 100% 29.85 in 2.0 mi Calm Calm - 0.10 in Rain Heavy Rain
7:56 PM 72.0 °F 71.1 °F 97% 29.84 in 1.8 mi Calm Calm - 0.12 in Rain Heavy Rain
8:03 PM 71.6 °F 71.6 °F 100% 29.84 in 3.0 mi Calm Calm - 0.03 in Rain Rain
8:56 PM 71.1 °F 70.0 °F 96% 29.81 in 7.0 mi Calm Calm - 0.16 in Rain Rain
9:56 PM 71.1 °F 70.0 °F 96% 29.83 in 8.0 mi North 4.6 mph - 0.07 in Rain Light Rain
10:20 PM 71.6 °F 69.8 °F 94% 29.85 in 9.0 mi Variable 3.5 mph - 0.03 in Rain Light Rain
10:28 PM 71.6 °F 69.8 °F 94% 29.86 in 10.0 mi Calm Calm - 0.03 in Rain Light Rain
10:56 PM 70.0 °F 69.1 °F 97% 29.87 in 10.0 mi North 3.5 mph - 0.03 in   Mostly Cloudy
11:30 PM 69.8 °F 68.0 °F 94% 29.87 in 10.0 mi Calm Calm - N/A   Overcast
11:56 PM 69.1 °F 68.0 °F 96% 29.86 in 10.0 mi North 3.5 mph - N/A   Overcast